Location: Arcusa
(42.3167°N, 0.0833°W)
Time: 09:57:09
(UTC+00:00)

H-2A R/B - Pass Details

Date: 25 January 2020
Orbit: 503 x 540 km, 97.3° (Epoch: 06 February)

Event Time Altitude Azimuth Distance (km) Brightness Sun altitude
Rises 06:48:38 0° 2° (N) 2,704 6.2 -6.3°
Reaches altitude 10° 06:50:53 10° 354° (N) 1,804 5.2 -5.9°
Maximum altitude 06:54:26 34° 289° (WNW) 895 3.4 -5.3°
Drops below altitude 10° 06:57:55 10° 223° (SW) 1,777 5.2 -4.7°
Sets 07:00:08 0° 214° (SW) 2,656 6.2 -4.3°
